Temperature
9 8 8 8 9 9 10 9 9 10 11 10 10 10 11 12 12 12 12 12 12 12 12 12 12 12 12 12 12 12 12 12 12 13 13 13 13 13 13 13 13 14 14 14
9 8 9 10 10 10 9 9 8 10 11 10 10 10 11 11 12 12 12 12 12 12 12 11 11 11 12 11 12 12 12 12 12 13 13 13 13 13 13 13 13 13 14 14
8 9 10 10 10 9 9 8 8 9 9 10 10 10 11 11 12 12 12 12 12 12 12 11 11 11 11 11 11 12 12 12 12 12 13 12 12 13 13 13 13 13 14 14
9 10 10 10 9 9 8 10 9 9 8 8 9 8 10 11 11 11 11 11 11 11 11 11 11 11 11 11 11 11 12 12 12 12 12 12 12 12 13 13 13 13 13 14
8 9 9 9 9 10 9 10 9 9 8 8 9 8 9 11 11 11 11 11 11 11 11 11 11 11 11 11 11 11 11 11 12 12 12 12 12 12 13 13 13 13 13 13
9 9 9 9 10 10 10 9 9 9 8 8 9 9 9 9 10 10 10 10 10 10 10 10 10 11 11 11 11 11 11 11 11 11 12 12 12 12 12 12 13 13 13 13
9 9 9 9 9 9 9 8 7 8 8 8 10 9 8 9 10 10 10 10 10 10 10 10 10 10 10 10 11 11 11 11 11 11 11 12 12 12 12 12 12 12 12 12
7 8 8 9 8 8 8 8 7 7 8 9 10 9 9 10 10 10 10 9 9 9 9 9 9 10 10 10 10 10 10 11 11 11 11 11 11 11 11 12 12 12 12 13
8 7 9 9 9 9 8 8 8 7 8 8 9 9 9 10 9 9 9 9 9 8 8 9 9 9 9 10 10 10 10 10 10 10 11 11 11 11 11 11 12 12 12 12
8 7 8 9 9 9 8 8 7 7 7 8 9 9 8 8 8 8 8 8 8 8 8 8 8 8 9 9 9 9 10 10 10 10 10 11 11 11 11 11 11 12 12 12
8 6 7 8 7 7 8 8 7 7 7 7 8 8 8 8 8 7 7 7 7 7 7 7 8 8 8 8 9 9 9 9 9 10 10 10 10 10 11 11 11 11 11 12
7 7 6 8 8 8 8 8 7 6 7 8 7 7 9 8 8 8 7 7 7 7 7 7 7 7 7 8 8 8 8 9 9 9 10 10 10 10 10 10 10 11 11 11
7 6 6 7 7 7 7 7 8 7 6 6 6 6 8 8 8 7 7 6 6 6 6 6 6 6 7 7 7 7 8 8 8 9 9 9 9 9 10 10 10 10 10 10
7 6 6 6 7 7 6 7 7 6 5 6 6 6 7 7 7 7 6 6 6 6 6 5 5 5 6 6 6 7 7 7 7 8 8 8 8 9 9 9 9 9 9 10
7 6 6 7 8 8 7 7 7 6 6 5 6 6 6 6 6 6 6 6 5 5 5 5 5 5 5 6 6 6 6 6 7 7 7 8 8 8 8 8 9 9 9 9
6 6 6 6 7 7 7 7 7 7 7 7 6 6 7 7 7 6 6 5 5 4 4 4 4 4 5 5 5 6 6 6 6 7 7 7 7 8 8 8 8 8 8 8
6 6 5 6 7 7 6 7 7 7 7 7 6 6 6 6 6 5 5 4 4 4 3 3 4 4 4 4 5 5 5 5 6 6 6 7 7 7 7 7 7 7 7 7
6 6 5 5 6 6 7 7 8 7 7 7 6 6 6 6 5 5 4 4 3 3 3 3 3 3 4 4 4 4 5 5 5 5 6 6 6 6 6 7 7 7 7 7
6 6 5 5 6 7 7 7 7 6 6 7 6 6 6 5 5 4 4 3 3 3 3 3 3 3 3 3 4 4 4 4 5 5 5 5 5 5 6 6 6 6 6 6
5 5 4 5 5 6 7 7 7 6 5 6 6 5 5 5 3 3 3 3 2 2 2 2 2 2 3 3 3 3 4 4 4 4 4 4 5 5 5 5 5 5 5 5
4 4 4 4 5 6 6 6 6 5 5 6 6 5 5 4 3 3 3 2 2 2 2 2 2 2 2 2 3 3 3 3 3 3 4 4 4 4 4 4 4 5 5 5
4 4 4 5 5 5 5 5 5 5 5 5 5 5 4 3 3 3 2 2 2 2 1 1 2 2 2 2 2 2 2 2 3 3 3 3 3 4 4 4 4 4 4 4
5 5 5 5 5 6 6 6 6 6 5 5 4 4 3 3 2 2 2 1 1 1 1 1 1 1 1 1 1 1 2 2 2 2 2 3 3 3 3 3 3 3 3 3
5 6 5 5 5 6 6 6 5 5 5 4 4 3 3 2 2 1 1 1 1 1 0 0 0 0 1 1 1 1 1 1 1 2 2 2 2 2 2 2 2 3 3 3
6 4 4 4 5 6 6 6 5 4 4 3 3 3 2 2 1 1 1 0 0 -0 -0 -0 -0 -0 -0 0 0 0 0 0 1 1 1 1 1 1 1 1 1 2 2 2
5 4 3 4 6 5 6 6 5 4 3 3 2 2 2 1 1 1 0 -0 -0 -1 -1 -1 -1 -1 -1 -0 -0 -0 -0 -0 0 0 0 1 1 1 1 1 1 1 1 1
Wind_Speed
4 2 3 4 5 7 7 6 7 7 5 5 7 8 9 7 5 5 4 3 3 3 3 2 3 4 4 4 5 6 7 7 6 5 5 5 6 7 6 6 8 10 11 12
3 4 6 7 6 6 5 4 6 5 4 5 6 7 7 5 4 3 3 2 3 3 3 3 3 4 3 4 5 6 7 7 7 6 5 5 5 6 6 5 7 9 10 11
2 3 5 5 4 5 4 3 4 6 7 5 5 5 3 2 2 2 2 2 2 3 4 5 4 4 4 4 5 5 6 7 7 6 5 4 3 4 5 6 6 6 9 11
2 4 4 4 4 4 4 3 4 5 4 3 3 2 2 0 1 1 1 2 2 1 2 4 4 5 5 4 4 5 6 7 7 7 6 7 5 5 6 5 5 6 7 9
1 3 4 4 5 5 3 5 6 6 5 4 3 1 2 3 4 4 4 3 3 2 1 3 3 4 4 4 3 4 6 6 6 6 7 7 6 5 5 5 7 7 6 8
3 1 3 4 5 4 4 5 7 5 3 2 2 1 2 4 6 6 6 5 5 4 4 3 2 3 3 3 3 4 5 5 6 6 7 7 8 8 8 7 8 7 6 6
2 2 0 3 4 2 3 3 2 1 1 1 2 2 2 6 7 7 7 6 5 5 4 3 2 3 2 2 3 3 4 5 6 6 6 7 8 9 9 9 8 8 7 7
1 0 1 1 2 3 4 2 2 2 2 1 2 2 2 6 7 8 8 8 7 6 5 4 3 3 2 1 2 2 3 4 5 5 5 6 6 6 6 7 7 8 7 8
2 1 2 1 2 3 3 2 2 2 3 1 0 2 3 8 9 10 11 10 10 9 7 6 6 5 4 2 1 1 2 3 3 3 4 5 6 6 6 6 5 5 6 7
3 1 0 1 1 1 3 3 2 2 2 1 0 2 3 7 8 9 10 10 10 10 9 7 6 6 5 4 2 0 1 1 2 2 2 3 4 4 5 4 5 5 6 7
2 1 1 0 1 2 2 2 2 3 2 1 1 2 4 5 7 8 9 9 10 9 9 8 7 7 6 6 5 3 2 2 1 0 1 1 2 3 3 4 4 4 4 6
1 1 1 0 2 1 2 2 2 2 3 2 0 0 4 5 6 7 8 9 9 9 9 8 8 8 8 7 6 6 5 4 3 2 1 1 0 2 3 3 3 3 4 5
2 1 2 1 1 0 1 2 2 2 2 2 0 1 2 4 6 7 8 8 8 8 9 9 9 9 8 7 7 7 7 6 5 4 2 2 1 0 1 2 2 3 3 4
2 1 1 1 1 0 1 2 2 1 0 1 1 1 2 5 6 7 7 7 7 7 8 9 8 8 8 7 7 7 7 6 6 5 4 3 2 1 1 1 2 2 3 3
1 1 2 3 3 2 2 3 2 1 2 2 1 2 2 4 4 5 6 6 7 8 8 9 9 8 9 8 8 7 7 6 6 5 4 3 3 2 1 1 1 2 2 3
1 1 2 3 3 2 4 4 4 3 3 3 2 3 2 3 4 5 6 7 7 8 8 9 9 9 9 8 8 7 7 6 6 5 4 3 3 3 2 0 1 2 2 3
2 1 1 1 1 3 4 4 5 3 2 2 3 1 2 4 5 5 5 6 7 7 8 8 9 9 8 8 7 7 6 5 5 5 5 4 3 3 2 1 1 2 2 2
1 1 1 2 3 3 2 3 2 3 3 2 1 0 1 2 3 3 4 5 6 7 8 8 8 8 8 7 7 7 6 6 5 5 4 4 4 3 3 1 1 2 2 3
2 1 1 1 3 4 3 4 2 2 2 3 3 0 1 2 2 2 4 5 5 6 6 6 7 7 7 7 7 7 7 6 6 5 4 4 3 3 2 1 1 1 2 2
1 2 2 2 2 3 2 5 3 2 2 3 3 1 1 2 2 2 4 5 6 6 6 6 7 7 7 7 7 7 7 6 7 6 5 4 3 2 2 1 1 1 2 2
3 3 3 4 4 4 3 6 5 3 3 4 3 2 1 1 2 2 4 4 5 5 6 6 6 6 7 7 6 6 7 7 7 6 6 4 3 2 1 1 1 2 3 3
7 6 6 5 5 6 6 6 5 3 3 3 3 2 1 0 1 2 3 4 5 5 6 6 6 6 6 6 6 6 7 7 7 6 5 4 3 2 1 1 1 2 3 3
6 5 4 5 5 2 6 4 3 4 3 3 3 2 2 1 2 2 3 3 4 5 5 5 6 6 6 6 6 6 7 8 7 6 5 4 3 2 1 0 1 1 2 2
4 2 2 3 4 4 6 5 4 3 3 3 3 2 2 0 1 2 2 3 3 4 5 5 5 6 6 6 6 6 7 7 6 5 5 3 2 2 2 1 0 1 1 2
5 6 4 5 4 3 6 7 6 5 4 4 3 2 1 0 1 2 2 2 3 4 4 4 5 5 6 6 6 6 7 7 6 5 4 3 2 1 1 1 1 1 1 1
6 7 7 7 7 6 5 7 8 7 6 5 4 2 1 1 1 2 2 2 3 3 3 4 5 5 6 6 6 6 6 6 6 5 5 3 2 2 1 1 2 3 2 1
Wind_Direction
205 242 263 282 273 282 285 290 294 295 302 295 276 272 279 275 265 258 260 237 219 211 218 217 195 188 194 192 190 189 175 181 174 170 165 165 184 176 169 176 180 174 174 172
222 257 277 288 290 295 298 308 299 299 313 308 288 279 274 268 254 244 242 248 222 209 203 207 198 191 188 198 191 187 181 180 174 177 170 168 177 177 171 173 178 178 176 174
260 307 307 294 296 310 306 307 307 310 315 280 270 284 258 227 228 234 239 254 246 220 195 196 189 179 173 192 194 193 186 188 181 175 163 156 168 166 174 179 181 184 181 176
287 300 307 306 308 307 300 314 303 301 311 302 310 312 341 187 180 262 322 345 315 257 193 180 176 171 174 184 187 199 199 193 190 177 169 168 183 191 188 184 183 185 189 180
316 351 337 321 315 314 298 306 292 280 284 290 266 253 319 25 28 19 23 8 356 3 95 148 162 169 167 162 177 194 192 190 193 180 175 179 191 202 186 181 179 184 193 183
250 329 344 320 314 305 305 297 279 256 252 280 270 195 3 19 18 19 22 14 10 26 58 78 102 129 137 148 161 179 175 190 188 180 184 190 197 198 185 184 186 185 190 187
254 181 137 316 322 328 337 332 330 301 209 246 37 77 30 25 31 26 23 21 21 37 47 63 70 93 114 144 150 160 172 190 185 181 191 194 201 204 197 193 193 189 191 193
297 127 91 4 339 329 323 329 349 327 334 2 17 56 56 40 36 30 29 34 29 28 36 47 49 70 89 105 123 137 208 202 189 188 195 200 202 208 207 204 202 197 197 196
339 39 89 47 316 320 327 355 315 296 294 304 146 128 86 35 39 34 27 28 29 24 26 30 31 32 25 24 91 153 218 198 187 191 199 202 200 203 206 203 204 203 196 192
339 336 304 119 260 274 319 321 323 335 338 344 66 74 25 13 22 30 25 21 20 19 22 24 26 25 17 11 8 50 235 217 189 195 198 209 202 201 195 197 204 205 194 188
347 337 310 105 24 352 353 346 325 305 313 348 0 32 39 42 33 29 24 18 16 16 16 17 21 22 19 17 14 22 12 359 25 229 202 201 195 187 177 186 196 201 199 191
353 309 293 159 100 358 339 341 343 345 330 329 89 1 50 58 51 36 27 19 17 18 16 16 21 21 18 16 14 17 12 13 6 357 352 315 330 184 182 189 196 192 192 192
346 319 307 182 142 9 342 329 321 328 342 331 67 218 58 51 41 35 27 19 18 19 18 18 20 17 14 14 15 16 13 7 4 7 1 358 3 301 193 186 187 178 175 178
326 316 299 343 10 356 292 304 313 68 106 320 198 245 356 23 24 22 18 15 18 20 19 18 17 12 11 15 18 15 10 5 4 7 1 358 358 356 304 202 175 169 169 173
303 289 302 304 303 293 280 279 272 203 214 215 259 327 356 17 20 15 9 10 16 20 18 14 12 6 5 10 12 9 5 3 4 9 8 0 6 15 27 55 152 156 164 169
297 288 324 292 249 252 279 269 252 249 237 237 269 301 42 35 25 16 12 11 12 14 10 6 6 4 4 2 1 359 358 358 360 5 3 2 7 15 14 14 153 141 148 148
192 230 286 265 239 287 271 236 205 199 206 218 246 257 34 28 18 8 7 11 9 4 0 0 360 357 357 355 354 351 351 355 358 357 357 1 6 9 6 13 111 143 143 141
237 266 262 296 312 266 194 71 132 181 215 218 245 343 29 25 9 11 28 23 5 359 356 355 353 350 349 351 351 347 352 355 354 355 359 0 360 360 3 23 86 110 121 133
320 293 297 291 284 264 171 160 160 183 247 197 191 189 5 28 352 6 38 19 357 355 354 349 346 342 344 350 351 348 348 350 352 353 354 355 358 355 350 347 77 95 107 112
301 302 280 259 265 257 168 130 115 110 263 166 155 172 357 12 304 298 14 6 358 358 357 353 346 347 350 349 349 348 345 349 345 343 341 342 347 358 357 354 41 82 111 117
185 204 220 236 251 265 134 130 131 169 223 133 139 152 142 240 249 312 352 347 350 353 353 352 349 350 347 346 352 351 349 346 337 336 337 341 347 353 353 29 77 106 114 116
185 186 200 200 223 243 147 146 186 191 125 128 131 126 113 6 346 344 341 339 342 345 348 351 348 346 345 350 354 349 343 335 335 337 337 336 338 350 12 93 104 116 127 130
204 202 196 201 212 169 161 164 142 121 136 136 132 108 99 7 327 335 334 335 337 340 344 347 341 339 344 351 354 346 336 334 334 338 337 334 342 354 356 141 154 152 154 151
215 196 232 262 244 200 188 178 160 145 141 122 118 110 103 324 333 341 336 330 333 336 337 338 337 338 341 345 346 344 338 335 333 334 331 333 337 337 335 344 169 186 184 174
203 172 208 245 246 219 208 194 182 161 142 133 131 137 142 162 323 330 322 320 323 325 327 331 329 330 334 339 342 344 341 340 337 334 330 332 328 324 332 335 328 284 256 203
198 191 195 223 206 192 207 184 170 164 169 168 170 178 161 151 293 322 313 318 326 327 330 330 330 332 335 339 340 342 342 342 338 333 332 330 327 323 325 330 353 16 355 359
Height
1471 1473 1472 1468 1466 1465 1462 1461 1461 1458 1454 1455 1452 1449 1445 1443 1443 1444 1444 1444 1444 1444 1446 1448 1450 1451 1453 1456 1458 1460 1463 1467 1471 1474 1478 1482 1486 1491 1495 1499 1503 1507 1511 1515
1471 1471 1468 1465 1463 1463 1462 1463 1462 1457 1453 1454 1452 1447 1443 1442 1442 1443 1443 1443 1442 1443 1444 1446 1447 1448 1450 1453 1455 1457 1460 1464 1468 1472 1475 1480 1483 1487 1491 1496 1500 1504 1508 1512
1470 1468 1465 1463 1462 1463 1462 1464 1463 1460 1456 1452 1451 1448 1441 1440 1440 1441 1441 1441 1441 1442 1443 1445 1445 1446 1449 1450 1452 1455 1458 1462 1465 1468 1472 1477 1480 1484 1488 1492 1495 1499 1503 1508
1468 1465 1464 1463 1463 1463 1464 1460 1460 1459 1460 1458 1454 1456 1445 1439 1440 1440 1440 1440 1441 1441 1442 1442 1443 1445 1447 1449 1450 1453 1456 1459 1462 1466 1468 1473 1476 1479 1483 1487 1491 1495 1499 1503
1468 1466 1466 1465 1464 1462 1462 1459 1458 1458 1459 1459 1453 1456 1450 1440 1442 1441 1440 1441 1441 1440 1440 1440 1442 1444 1446 1448 1449 1452 1454 1457 1460 1463 1466 1469 1473 1477 1480 1484 1487 1491 1495 1499
1467 1467 1467 1466 1463 1462 1460 1459 1456 1455 1458 1462 1451 1453 1454 1447 1446 1444 1442 1441 1441 1440 1440 1441 1442 1442 1444 1446 1448 1451 1452 1455 1458 1460 1463 1466 1470 1473 1476 1479 1482 1486 1490 1493
1466 1466 1467 1467 1464 1462 1462 1465 1465 1461 1462 1458 1446 1451 1457 1450 1447 1446 1444 1443 1442 1441 1441 1442 1442 1442 1443 1444 1446 1448 1451 1453 1456 1457 1460 1462 1466 1469 1471 1474 1478 1481 1485 1488
1470 1470 1467 1467 1468 1467 1465 1466 1472 1470 1462 1457 1450 1456 1457 1451 1449 1447 1446 1445 1444 1443 1443 1443 1443 1443 1443 1444 1445 1447 1449 1451 1453 1455 1457 1459 1463 1466 1468 1470 1473 1476 1479 1482
1470 1470 1468 1467 1467 1467 1466 1467 1466 1468 1462 1462 1456 1454 1454 1453 1452 1451 1450 1448 1447 1446 1445 1444 1443 1442 1443 1444 1445 1446 1447 1448 1450 1452 1453 1456 1459 1462 1464 1466 1469 1472 1474 1478
1471 1473 1469 1467 1467 1467 1467 1466 1468 1469 1467 1463 1456 1457 1462 1459 1457 1455 1454 1452 1451 1449 1447 1446 1445 1444 1444 1444 1445 1445 1445 1446 1447 1449 1450 1452 1454 1457 1460 1462 1465 1468 1470 1473
1472 1475 1471 1469 1470 1470 1469 1469 1468 1467 1465 1468 1467 1468 1462 1461 1460 1459 1458 1456 1454 1452 1449 1448 1447 1446 1445 1444 1444 1444 1444 1445 1445 1447 1448 1450 1451 1454 1456 1458 1461 1463 1466 1469
1472 1474 1474 1470 1469 1469 1469 1468 1469 1473 1470 1465 1471 1475 1462 1462 1462 1461 1461 1459 1457 1455 1452 1450 1448 1446 1445 1444 1443 1443 1443 1444 1444 1445 1446 1448 1449 1451 1452 1454 1456 1459 1461 1463
1473 1475 1477 1472 1475 1473 1471 1469 1468 1469 1472 1471 1473 1475 1463 1462 1463 1463 1462 1461 1459 1457 1454 1452 1450 1448 1447 1445 1444 1443 1443 1443 1444 1444 1445 1446 1446 1448 1449 1451 1452 1455 1456 1458
1474 1475 1478 1477 1474 1473 1473 1471 1468 1472 1476 1474 1470 1469 1465 1464 1464 1464 1464 1463 1461 1459 1457 1454 1452 1450 1448 1446 1445 1444 1443 1443 1443 1443 1443 1444 1444 1445 1446 1447 1449 1451 1452 1454
1474 1476 1474 1472 1469 1469 1470 1469 1469 1470 1471 1474 1470 1468 1467 1467 1466 1466 1465 1464 1462 1460 1458 1456 1454 1451 1449 1447 1446 1445 1444 1443 1443 1442 1442 1442 1442 1442 1443 1444 1446 1447 1448 1450
1474 1476 1475 1474 1469 1468 1470 1468 1468 1468 1468 1468 1468 1468 1466 1466 1466 1466 1465 1464 1462 1461 1460 1458 1455 1452 1450 1449 1447 1445 1444 1443 1442 1442 1441 1441 1440 1440 1440 1441 1442 1443 1445 1446
1475 1476 1477 1475 1468 1469 1472 1465 1465 1466 1465 1467 1469 1469 1466 1467 1467 1467 1466 1465 1463 1462 1460 1458 1455 1453 1451 1449 1447 1445 1444 1443 1442 1441 1440 1439 1438 1437 1437 1438 1439 1440 1442 1443
1475 1475 1477 1475 1473 1475 1466 1461 1461 1463 1465 1465 1465 1466 1467 1468 1468 1467 1466 1465 1464 1462 1460 1457 1455 1453 1451 1449 1447 1445 1443 1442 1441 1440 1439 1437 1437 1436 1436 1436 1436 1437 1439 1440
1474 1476 1476 1477 1474 1466 1463 1461 1462 1464 1465 1463 1465 1466 1466 1467 1467 1467 1466 1465 1464 1462 1460 1457 1455 1453 1450 1448 1446 1444 1442 1441 1440 1439 1438 1437 1436 1435 1435 1434 1434 1435 1436 1438
1476 1476 1479 1476 1476 1471 1460 1460 1461 1465 1467 1462 1463 1465 1466 1466 1468 1467 1466 1464 1463 1461 1459 1457 1454 1452 1450 1448 1446 1443 1441 1440 1439 1437 1436 1435 1435 1434 1433 1433 1433 1433 1435 1436
1478 1478 1480 1478 1475 1465 1459 1459 1462 1469 1465 1461 1462 1463 1465 1465 1466 1466 1464 1463 1462 1460 1458 1456 1453 1451 1449 1446 1444 1443 1441 1439 1438 1436 1435 1434 1433 1432 1432 1432 1432 1432 1433 1434
1472 1474 1474 1472 1474 1469 1458 1460 1462 1461 1459 1460 1461 1462 1463 1463 1463 1463 1462 1461 1460 1458 1456 1454 1452 1450 1448 1445 1443 1441 1439 1438 1436 1435 1433 1432 1431 1431 1431 1430 1430 1430 1431 1432
1463 1463 1462 1463 1462 1456 1455 1455 1456 1457 1458 1459 1460 1461 1461 1461 1461 1461 1460 1459 1458 1457 1455 1453 1451 1449 1447 1445 1443 1440 1438 1437 1435 1433 1431 1430 1430 1429 1429 1429 1429 1429 1430 1430
1457 1456 1458 1457 1453 1452 1453 1454 1455 1456 1457 1458 1458 1459 1459 1459 1459 1459 1458 1457 1456 1455 1453 1452 1450 1448 1446 1444 1442 1440 1438 1436 1433 1431 1430 1429 1428 1427 1427 1427 1427 1427 1428 1428
1452 1455 1456 1455 1451 1450 1450 1450 1452 1453 1455 1456 1456 1457 1457 1457 1457 1457 1456 1455 1454 1453 1452 1450 1448 1446 1444 1442 1441 1439 1436 1434 1432 1430 1429 1428 1427 1426 1425 1425 1425 1426 1426 1427
1446 1449 1452 1449 1444 1446 1445 1446 1449 1450 1452 1453 1454 1454 1455 1455 1455 1455 1454 1453 1452 1451 1450 1448 1447 1445 1443 1441 1439 1437 1435 1433 1431 1429 1428 1426 1425 1425 1424 1423 1423 1424 1425 1425